Погода в Выходном

Россия / Мурманская область     68°50′13″N   33°04′46″E
темп.,
°C
ветер,
м/с
пор.,
м/с
влажн.,
%
обл.,
%
осадки,
мм/ч
давл.,
гПа
погр.,
м
22 января, пт
пт2200:00−19в119840 0.0 101820
03:00−18в229367 0.0 101859
06:00−19вюв4149093 0.0 1017395
09:00−20вюв3128796 0.0 1017313
12:00−20в2790100 0.0 1017201
15:00−19вюв31088100 0.0 1017303
18:00−20вюв31188100 0.0 1016338
21:00−20вюв41287100 0.0 1016353
23 января, сб
сб2300:00−22вюв389186 0.0 1015218
03:00−23вюв389259 0.0 1016207
06:00−23вюв28920 0.0 1014219
09:00−22вюв4119131 0.0 1013249
12:00−21вюв41289100 0.0 1011305
15:00−18вюв61587100 0.0 1010499
18:00−16вюв71494100 1.5 1008571
21:00−16юв51295100 4.6 1007601
24 января, вс
вс2400:00−17юв3795100 0.8 1006278
03:00−20юв119795 0.8 100520
06:00−20юв129563 0.0 100520
09:00−20юв129479 0.0 100520
12:00−19юв129680 0.0 100650
15:00−17ююв239688 0.1 100575
18:00−13ююв2596100 0.1 1005132
21:00−12ююв2296100 0.1 100572
25 января, пн
пн2500:00−11ююв239597 0.0 100568
03:00−10ююв229588 0.0 100536
06:00−8юв2296100 0.0 100536
09:00−7юв119799 0.0 100521
12:00−9юв119779 0.0 100621
15:00−10юв119749 0.0 100621
18:00−10всв009772 0.0 100621
21:00−10св019785 0.0 100621
26 января, вт
вт2600:00−10ссв1196100 0.0 100621
03:00−10св1196100 0.0 100621
06:00−8ссв1297100 0.2 100631
09:00−6ссв1297100 0.9 1006106
12:00−3св1698100 0.7 1007241
15:00−3св259798 1.0 1008153
18:00−4всв259797 0.2 1009173
21:00−4в259798 0.4 1009198